Location: ??
(34.7252°N, 135.5457°E)
Time: 09:48:38
(UTC+00:00)

SL-16 R/B - Pass Details

Date: 24 September 2020
Orbit: 842 x 846 km, 71.0° (Epoch: 23 October)

Event Time Altitude Azimuth Distance (km) Brightness Sun altitude
Exits shadow 18:37:23 43° 333° (NNW) 1,171 2.8 -27.2°
Drops below altitude 10° 18:41:40 10° 10° (N) 2,469 4.9 -26.4°
Sets 18:44:12 0° 16° (NNE) 3,408 5.8 -25.9°
